Flag Weather past 2 weeks in Cairns, Queensland, Australia

Now
90 °F

Passing clouds.


Feels Like: 93 °F
Forecast: 77 / 89 °F
Wind: 13 mph from East

Location: Cairns Airport

Current Time: Nov 24, 2014 at 11:27:43 AM

Latest Report: Nov 24, 2014 at 11:00 AM


Visibility: N/A

Pressure: 29.89 "Hg

Humidity: 49%

Dew point: 68 °F

Location of CairnsLocation

Historic Weather in Cairns — Graph

°F

Cairns temperature yesterday

Maximum temperature yesterday: 90 °F (at 12:00 PM)
Minimum temperature yesterday: 73 °F (at 5:00 AM)
Average temperature yesterday: 82 °F

Past Weeks' High & Low Weather Summary

 TemperatureHumidityPressure
High90 °F (Nov 9, 1:00 PM)100% (Nov 17, 4:00 AM)30.01 "Hg (Nov 17, 4:00 AM)
Low66 °F (Nov 16, 5:00 AM)33% (Nov 14, 12:00 PM)29.80 "Hg (Nov 16, 3:30 PM)
Average80 °F67%29.92 "Hg
* Reported Nov 9 9:00 AM — Nov 24 9:30 AM, Cairns, Weather by CustomWeather, © 2014

Note: Actual official high and low records may vary slightly from our data, if they occured in-between our weather recording intervals... More about our weather records

Advertising

Cairns weather history for previous 24 hours

 ConditionsComfort  
Time TempWeatherWind HumidityBarometerVisibility
9:30 AM
Nov 24
86 °FScattered clouds.10 mph59%29.92 "HgN/A
9:00 AM86 °FPassing clouds.8 mph62%29.92 "HgN/A
8:30 AM82 °FPassing clouds.8 mph70%29.92 "HgN/A
8:00 AM82 °FPassing clouds.10 mph70%29.92 "HgN/A
7:00 AM81 °FPassing clouds.9 mph74%29.89 "HgN/A
6:00 AM77 °FSprinkles. Passing clouds.8 mph83%29.89 "HgN/A
5:30 AM77 °FPassing clouds.8 mph79%29.86 "HgN/A
5:00 AM77 °FPassing clouds.7 mph83%29.86 "HgN/A
4:30 AM77 °FPassing clouds.7 mph83%29.86 "HgN/A
4:00 AM77 °FPassing clouds.7 mph83%29.89 "HgN/A
3:30 AM77 °FClear.6 mph83%29.89 "HgN/A
3:00 AM77 °FPassing clouds.7 mph83%29.89 "HgN/A
2:30 AM77 °FClear.7 mph83%29.89 "HgN/A
2:00 AM77 °FPassing clouds.7 mph83%29.89 "HgN/A
1:30 AM77 °FPassing clouds.7 mph83%29.89 "HgN/A
12:30 AM79 °FPassing clouds.6 mph79%29.92 "HgN/A
12:00 AM79 °FPassing clouds.6 mph79%29.95 "HgN/A
11:30 PM
Nov 23
79 °FClear.6 mph79%29.95 "HgN/A
11:00 PM79 °FPassing clouds.5 mph79%29.95 "HgN/A
10:30 PM79 °FPassing clouds.3 mph79%29.95 "HgN/A
10:00 PM79 °FPassing clouds.5 mph74%29.95 "HgN/A
9:30 PM79 °FPartly cloudy.5 mph74%29.95 "HgN/A
9:00 PM79 °FPassing clouds.5 mph74%29.92 "HgN/A
8:30 PM79 °FPassing clouds.6 mph74%29.92 "HgN/A
8:00 PM79 °FPassing clouds.5 mph74%29.92 "HgN/A
7:30 PM81 °FPassing clouds.6 mph70%29.92 "HgN/A
7:00 PM81 °FPassing clouds.9 mph70%29.89 "HgN/A
6:30 PM82 °FPassing clouds.13 mph66%29.89 "HgN/A
6:00 PM82 °FPassing clouds.14 mph66%29.86 "HgN/A
5:30 PM84 °FPassing clouds.12 mph58%29.86 "HgN/A
5:00 PM86 °FPassing clouds.15 mph55%29.86 "HgN/A
4:30 PM86 °FPassing clouds.15 mph55%29.86 "HgN/A
4:00 PM88 °FPassing clouds.17 mph52%29.86 "HgN/A
3:30 PM88 °FPassing clouds.16 mph52%29.86 "HgN/A
3:00 PM90 °FPassing clouds.17 mph49%29.86 "HgN/A
2:30 PM88 °FPassing clouds.17 mph55%29.89 "HgN/A
2:00 PM90 °FPassing clouds.16 mph49%29.89 "HgN/A
1:00 PM90 °FPassing clouds.15 mph49%29.92 "HgN/A
12:30 PM90 °FPassing clouds.16 mph49%29.92 "HgN/A
12:00 PM90 °FPassing clouds.15 mph52%29.92 "HgN/A
11:30 AM88 °FPassing clouds.14 mph59%29.95 "HgN/A
11:00 AM88 °FSunny.13 mph55%29.95 "HgN/A
Weather by CustomWeather, © 2014

See weather overviewHow to use our weather pages